status,avgMeasuredTime,avgSpeed,extID,medianMeasuredTime,TIMESTAMP,vehicleCount,_id,REPORT_ID
OK,92,33,768,92,2014-08-01T07:55:00,2,20746492,193026
OK,92,33,768,92,2014-08-01T08:00:00,0,20746823,193026
OK,92,33,768,92,2014-08-01T08:05:00,0,20747272,193026
OK,92,33,768,92,2014-08-01T08:10:00,0,20747645,193026
OK,73,42,768,73,2014-08-01T08:15:00,2,20748094,193026
OK,73,42,768,73,2014-08-01T08:20:00,2,20748543,193026
OK,83,37,768,83,2014-08-01T08:25:00,2,20748992,193026
OK,83,37,768,83,2014-08-01T08:30:00,2,20749441,193026
OK,98,31,768,98,2014-08-01T08:35:00,1,20749890,193026
OK,120,25,768,120,2014-08-01T08:40:00,2,20750339,193026
OK,143,21,768,143,2014-08-01T08:45:00,1,20750788,193026
OK,143,21,768,143,2014-08-01T08:50:00,0,20751237,193026
OK,82,37,768,82,2014-08-01T08:55:00,1,20751686,193026
OK,82,37,768,82,2014-08-01T09:00:00,1,20752135,193026
OK,82,37,768,82,2014-08-01T09:05:00,0,20752584,193026
OK,91,33,768,91,2014-08-01T09:10:00,2,20753033,193026
OK,91,33,768,91,2014-08-01T09:15:00,2,20753482,193026
OK,91,33,768,91,2014-08-01T09:20:00,0,20753931,193026
OK,63,48,768,63,2014-08-01T09:25:00,1,20754380,193026
OK,63,48,768,63,2014-08-01T09:30:00,1,20754829,193026
OK,63,48,768,63,2014-08-01T09:35:00,0,20755278,193026
OK,103,29,768,103,2014-08-01T09:40:00,3,20755727,193026
OK,110,27,768,110,2014-08-01T09:45:00,2,20756176,193026
OK,73,42,768,73,2014-08-01T09:50:00,1,20756625,193026
OK,73,42,768,73,2014-08-01T09:55:00,1,20757074,193026
OK,73,42,768,73,2014-08-01T10:00:00,0,20757523,193026
OK,81,37,768,81,2014-08-01T10:05:00,1,20757972,193026
OK,81,37,768,81,2014-08-01T10:10:00,0,20758421,193026
OK,81,37,768,81,2014-08-01T10:15:00,0,20758870,193026
OK,81,37,768,81,2014-08-01T10:20:00,0,20759319,193026
OK,81,37,768,81,2014-08-01T10:25:00,0,20759768,193026
OK,81,37,768,81,2014-08-01T10:30:00,0,20760217,193026
OK,62,49,768,62,2014-08-01T10:35:00,1,20760666,193026
OK,62,49,768,62,2014-08-01T10:40:00,1,20761115,193026
OK,58,53,768,58,2014-08-01T10:45:00,1,20761564,193026
OK,65,47,768,65,2014-08-01T10:50:00,2,20762013,193026
OK,95,32,768,95,2014-08-01T10:55:00,1,20762462,193026
OK,84,36,768,84,2014-08-01T11:00:00,2,20762911,193026
OK,78,39,768,78,2014-08-01T11:05:00,5,20763360,193026
OK,68,45,768,68,2014-08-01T11:10:00,2,20763809,193026
OK,70,43,768,70,2014-08-01T11:15:00,1,20764258,193026
OK,67,45,768,67,2014-08-01T11:20:00,2,20764706,193026
OK,65,47,768,65,2014-08-01T11:25:00,0,20765155,193026
OK,68,45,768,68,2014-08-01T11:30:00,2,20765604,193026
OK,63,48,768,63,2014-08-01T11:35:00,2,20766053,193026
OK,59,52,768,59,2014-08-01T11:40:00,1,20766502,193026
OK,65,47,768,65,2014-08-01T11:45:00,1,20766951,193026
OK,60,51,768,60,2014-08-01T11:50:00,2,20767400,193026
OK,55,55,768,55,2014-08-01T11:55:00,1,20767849,193026
OK,55,55,768,55,2014-08-01T12:00:00,0,20768298,193026
OK,55,55,768,55,2014-08-01T12:05:00,0,20768747,193026
OK,55,55,768,55,2014-08-01T12:10:00,0,20769196,193026
OK,59,52,768,59,2014-08-01T12:15:00,1,20769645,193026
OK,59,52,768,59,2014-08-01T12:20:00,1,20770094,193026
OK,88,34,768,88,2014-08-01T12:25:00,1,20770543,193026
OK,88,34,768,88,2014-08-01T12:30:00,1,20770992,193026
OK,109,28,768,109,2014-08-01T12:35:00,1,20771441,193026
OK,109,28,768,109,2014-08-01T12:40:00,1,20771890,193026
OK,80,38,768,80,2014-08-01T12:45:00,2,20772339,193026
OK,86,35,768,86,2014-08-01T12:50:00,2,20772788,193026
OK,94,32,768,94,2014-08-01T12:55:00,2,20773237,193026
OK,112,27,768,112,2014-08-01T13:00:00,2,20773686,193026
OK,103,29,768,103,2014-08-01T13:05:00,1,20774135,193026
OK,106,29,768,106,2014-08-01T13:10:00,2,20774584,193026
OK,105,29,768,105,2014-08-01T13:15:00,3,20775033,193026
OK,90,34,768,90,2014-08-01T13:20:00,2,20775482,193026
OK,75,40,768,75,2014-08-01T13:25:00,2,20775931,193026
OK,96,32,768,96,2014-08-01T13:30:00,3,20776380,193026
OK,96,32,768,96,2014-08-01T13:35:00,3,20776829,193026
OK,60,51,768,60,2014-08-01T13:40:00,1,20777278,193026
OK,60,51,768,60,2014-08-01T13:45:00,1,20777727,193026
OK,60,51,768,60,2014-08-01T13:50:00,0,20778176,193026
OK,62,49,768,62,2014-08-01T13:55:00,1,20778625,193026
OK,62,49,768,62,2014-08-01T14:00:00,1,20779074,193026
OK,62,49,768,62,2014-08-01T14:05:00,0,20779523,193026
OK,134,22,768,134,2014-08-01T14:10:00,1,20779972,193026
OK,134,22,768,134,2014-08-01T14:15:00,0,20780421,193026
OK,134,22,768,134,2014-08-01T14:20:00,0,20780870,193026
OK,134,22,768,134,2014-08-01T14:25:00,0,20781319,193026
OK,94,32,768,94,2014-08-01T14:30:00,2,20781768,193026
OK,94,32,768,94,2014-08-01T14:35:00,2,20782217,193026
OK,94,32,768,94,2014-08-01T14:40:00,0,20782666,193026
OK,94,32,768,94,2014-08-01T14:45:00,0,20783115,193026
OK,94,32,768,94,2014-08-01T14:50:00,0,20783564,193026
OK,94,32,768,94,2014-08-01T14:55:00,0,20784013,193026
OK,94,32,768,94,2014-08-01T15:00:00,0,20784462,193026
OK,94,32,768,94,2014-08-01T15:05:00,0,20784911,193026
OK,94,32,768,94,2014-08-01T15:10:00,0,20785360,193026
OK,94,32,768,94,2014-08-01T15:15:00,0,20785809,193026
OK,80,38,768,80,2014-08-01T15:20:00,2,20786258,193026
OK,75,40,768,75,2014-08-01T15:25:00,3,20786707,193026
OK,68,45,768,68,2014-08-01T15:30:00,2,20787156,193026
OK,83,37,768,83,2014-08-01T15:35:00,1,20787605,193026
OK,83,37,768,83,2014-08-01T15:40:00,0,20788054,193026
OK,88,34,768,88,2014-08-01T15:45:00,1,20788503,193026
OK,86,35,768,86,2014-08-01T15:50:00,1,20788952,193026
OK,86,35,768,86,2014-08-01T15:55:00,1,20789401,193026
OK,86,35,768,86,2014-08-01T16:00:00,0,20789850,193026
OK,86,35,768,86,2014-08-01T16:05:00,0,20790299,193026
OK,125,24,768,125,2014-08-01T16:10:00,1,20790748,193026
OK,65,47,768,65,2014-08-01T16:15:00,1,20791197,193026
OK,65,47,768,65,2014-08-01T16:20:00,1,20791646,193026
OK,107,28,768,107,2014-08-01T16:25:00,1,20792095,193026
OK,107,28,768,107,2014-08-01T16:30:00,1,20792544,193026
OK,107,28,768,107,2014-08-01T16:35:00,0,20792993,193026
OK,87,35,768,87,2014-08-01T16:40:00,1,20793442,193026
OK,70,43,768,70,2014-08-01T16:45:00,2,20793891,193026
OK,54,56,768,54,2014-08-01T16:50:00,1,20794340,193026
OK,54,56,768,54,2014-08-01T16:55:00,0,20794789,193026
OK,60,51,768,60,2014-08-01T17:00:00,1,20795238,193026
OK,60,51,768,60,2014-08-01T17:05:00,1,20795687,193026
OK,60,51,768,60,2014-08-01T17:10:00,0,20796136,193026
OK,60,51,768,60,2014-08-01T17:15:00,0,20796585,193026
OK,60,51,768,60,2014-08-01T17:20:00,0,20797034,193026
OK,60,51,768,60,2014-08-01T17:25:00,0,20797483,193026
OK,60,51,768,60,2014-08-01T17:30:00,0,20797932,193026
OK,60,51,768,60,2014-08-01T17:35:00,0,20798381,193026
OK,60,51,768,60,2014-08-01T17:40:00,0,20798830,193026
OK,60,51,768,60,2014-08-01T17:45:00,0,20799279,193026
OK,60,51,768,60,2014-08-01T17:50:00,0,20799728,193026
OK,60,51,768,60,2014-08-01T17:55:00,0,20800177,193026
OK,60,51,768,60,2014-08-01T18:00:00,0,20800626,193026
OK,60,51,768,60,2014-08-01T18:05:00,0,20801075,193026
OK,60,51,768,60,2014-08-01T18:10:00,0,20801524,193026
OK,131,23,768,131,2014-08-01T18:15:00,1,20801973,193026
OK,131,23,768,131,2014-08-01T18:20:00,0,20802422,193026
OK,91,33,768,91,2014-08-01T18:25:00,1,20802871,193026
OK,91,33,768,91,2014-08-01T18:30:00,1,20803320,193026
OK,91,33,768,91,2014-08-01T18:35:00,0,20803769,193026
OK,91,33,768,91,2014-08-01T18:40:00,0,20804218,193026
OK,99,31,768,99,2014-08-01T18:45:00,1,20804667,193026
OK,161,19,768,161,2014-08-01T18:50:00,1,20805116,193026
OK,155,19,768,155,2014-08-01T18:55:00,2,20805565,193026
OK,149,20,768,149,2014-08-01T19:00:00,0,20806014,193026
OK,149,20,768,149,2014-08-01T19:05:00,0,20806463,193026
OK,149,20,768,149,2014-08-01T19:10:00,0,20806912,193026
OK,64,48,768,64,2014-08-01T19:15:00,1,20807361,193026
OK,64,48,768,64,2014-08-01T19:20:00,0,20807810,193026
OK,64,48,768,64,2014-08-01T19:25:00,0,20808259,193026
OK,64,48,768,64,2014-08-01T19:30:00,0,20808708,193026
OK,64,48,768,64,2014-08-01T19:35:00,0,20809157,193026
OK,64,48,768,64,2014-08-01T19:40:00,0,20809606,193026
OK,64,48,768,64,2014-08-01T19:45:00,0,20810055,193026
OK,64,48,768,64,2014-08-01T19:50:00,0,20810504,193026
OK,64,48,768,64,2014-08-01T19:55:00,0,20810953,193026
OK,81,37,768,81,2014-08-01T21:20:00,0,20814739,193026
OK,81,37,768,81,2014-08-01T22:00:00,0,20816682,193026
OK,81,37,768,81,2014-08-01T22:05:00,0,20817131,193026
OK,81,37,768,81,2014-08-01T22:10:00,0,20817453,193026
OK,81,37,768,81,2014-08-01T22:15:00,0,20817882,193026
OK,81,37,768,81,2014-08-01T22:20:00,0,20818172,193026
OK,81,37,768,81,2014-08-01T22:25:00,0,20818488,193026
OK,84,36,768,84,2014-08-01T23:45:00,0,20822230,193026
OK,84,36,768,84,2014-08-02T00:00:00,0,20823121,193026
OK,84,36,768,84,2014-08-02T00:05:00,0,20823570,193026
OK,84,36,768,84,2014-08-02T00:10:00,0,20824019,193026
OK,84,36,768,84,2014-08-02T00:15:00,0,20824468,193026
OK,84,36,768,84,2014-08-02T00:20:00,0,20824917,193026
OK,84,36,768,84,2014-08-02T00:25:00,0,20825366,193026
OK,84,36,768,84,2014-08-02T00:30:00,0,20825815,193026
OK,84,36,768,84,2014-08-02T00:35:00,0,20826264,193026
OK,84,36,768,84,2014-08-02T00:40:00,0,20826713,193026
OK,84,36,768,84,2014-08-02T00:45:00,0,20827162,193026
OK,84,36,768,84,2014-08-02T00:50:00,0,20827611,193026
OK,84,36,768,84,2014-08-02T00:55:00,0,20828060,193026
OK,84,36,768,84,2014-08-02T01:00:00,0,20828509,193026
OK,84,36,768,84,2014-08-02T01:05:00,0,20828958,193026
OK,84,36,768,84,2014-08-02T01:10:00,0,20829407,193026
OK,84,36,768,84,2014-08-02T01:15:00,0,20829856,193026
OK,84,36,768,84,2014-08-02T01:20:00,0,20830305,193026
OK,84,36,768,84,2014-08-02T01:25:00,0,20830754,193026
OK,84,36,768,84,2014-08-02T01:30:00,0,20831203,193026
OK,84,36,768,84,2014-08-02T01:35:00,0,20831652,193026
OK,84,36,768,84,2014-08-02T01:40:00,0,20832101,193026
OK,84,36,768,84,2014-08-02T01:45:00,0,20832550,193026
OK,84,36,768,84,2014-08-02T01:50:00,0,20832999,193026
OK,84,36,768,84,2014-08-02T01:55:00,0,20833448,193026
OK,84,36,768,84,2014-08-02T02:00:00,0,20833897,193026
OK,84,36,768,84,2014-08-02T02:05:00,0,20834346,193026
OK,84,36,768,84,2014-08-02T02:10:00,0,20834795,193026
OK,84,36,768,84,2014-08-02T02:15:00,0,20835244,193026
OK,84,36,768,84,2014-08-02T02:20:00,0,20835693,193026
OK,84,36,768,84,2014-08-02T02:25:00,0,20836142,193026
OK,84,36,768,84,2014-08-02T02:30:00,0,20836591,193026
OK,84,36,768,84,2014-08-02T02:35:00,0,20837040,193026
OK,84,36,768,84,2014-08-02T02:40:00,0,20837489,193026
OK,84,36,768,84,2014-08-02T02:45:00,0,20837938,193026
OK,84,36,768,84,2014-08-02T02:50:00,0,20838387,193026
OK,84,36,768,84,2014-08-02T02:55:00,0,20838836,193026
OK,84,36,768,84,2014-08-02T03:00:00,0,20839285,193026
OK,84,36,768,84,2014-08-02T03:05:00,0,20839734,193026
OK,84,36,768,84,2014-08-02T03:10:00,0,20840183,193026
OK,84,36,768,84,2014-08-02T03:15:00,0,20840632,193026
OK,84,36,768,84,2014-08-02T03:20:00,0,20841081,193026
OK,84,36,768,84,2014-08-02T03:25:00,0,20841530,193026
OK,84,36,768,84,2014-08-02T03:30:00,0,20841979,193026
OK,84,36,768,84,2014-08-02T03:35:00,0,20842428,193026
OK,84,36,768,84,2014-08-02T03:40:00,0,20842877,193026
OK,50,61,768,50,2014-08-02T03:45:00,1,20843326,193026
OK,50,61,768,50,2014-08-02T03:50:00,1,20843775,193026
OK,50,61,768,50,2014-08-02T03:55:00,0,20844224,193026
OK,50,61,768,50,2014-08-02T04:10:00,0,20845134,193026
OK,50,61,768,50,2014-08-02T04:15:00,0,20845314,193026
OK,50,61,768,50,2014-08-02T04:20:00,0,20845670,193026
OK,50,61,768,50,2014-08-02T04:30:00,0,20846226,193026
OK,50,61,768,50,2014-08-02T04:35:00,0,20846593,193026
OK,50,61,768,50,2014-08-02T04:40:00,0,20846976,193026
OK,50,61,768,50,2014-08-02T04:45:00,0,20847235,193026
OK,50,61,768,50,2014-08-02T04:50:00,0,20847601,193026
OK,87,35,768,87,2014-08-02T05:00:00,1,20848317,193026
OK,87,35,768,87,2014-08-02T05:10:00,0,20848835,193026
OK,87,35,768,87,2014-08-02T05:20:00,0,20849372,193026
OK,81,37,768,81,2014-08-02T05:40:00,3,20850462,193026
OK,74,41,768,74,2014-08-02T05:50:00,0,20851121,193026
OK,74,41,768,74,2014-08-02T06:00:00,0,20851678,193026
OK,74,41,768,74,2014-08-02T06:05:00,0,20852127,193026
OK,74,41,768,74,2014-08-02T06:10:00,0,20852576,193026
OK,74,41,768,74,2014-08-02T06:15:00,0,20853025,193026
OK,74,41,768,74,2014-08-02T06:20:00,0,20853474,193026
OK,59,52,768,59,2014-08-02T06:25:00,1,20853923,193026
OK,59,52,768,59,2014-08-02T06:30:00,1,20854372,193026
OK,59,52,768,59,2014-08-02T06:35:00,0,20854821,193026
OK,100,30,768,100,2014-08-02T06:40:00,1,20855270,193026
OK,53,58,768,53,2014-08-02T06:45:00,1,20855719,193026
OK,53,58,768,53,2014-08-02T06:50:00,0,20856168,193026
OK,53,58,768,53,2014-08-02T06:55:00,0,20856617,193026
OK,53,58,768,53,2014-08-02T07:00:00,0,20857066,193026
OK,53,58,768,53,2014-08-02T07:05:00,0,20857515,193026
OK,53,58,768,53,2014-08-02T07:10:00,0,20857964,193026
OK,53,58,768,53,2014-08-02T07:15:00,0,20858413,193026
OK,53,58,768,53,2014-08-02T07:20:00,0,20858862,193026
OK,69,44,768,69,2014-08-02T07:25:00,2,20859311,193026
OK,72,42,768,72,2014-08-02T07:30:00,2,20859760,193026
OK,63,48,768,63,2014-08-02T07:35:00,0,20860209,193026
OK,63,48,768,63,2014-08-02T07:40:00,0,20860658,193026
OK,63,48,768,63,2014-08-02T07:45:00,0,20861107,193026
OK,63,48,768,63,2014-08-02T07:50:00,0,20861556,193026
OK,63,48,768,63,2014-08-02T07:55:00,0,20862005,193026
OK,63,48,768,63,2014-08-02T08:00:00,0,20862454,193026
OK,63,48,768,63,2014-08-02T08:05:00,0,20862903,193026
OK,63,48,768,63,2014-08-02T08:10:00,0,20863352,193026
OK,63,48,768,63,2014-08-02T08:15:00,0,20863801,193026
OK,63,48,768,63,2014-08-02T08:20:00,0,20864250,193026
OK,63,48,768,63,2014-08-02T08:25:00,0,20864699,193026
OK,63,48,768,63,2014-08-02T08:30:00,0,20865148,193026
OK,63,48,768,63,2014-08-02T08:35:00,0,20865597,193026
OK,63,48,768,63,2014-08-02T08:40:00,0,20866046,193026
OK,63,48,768,63,2014-08-02T08:45:00,0,20866495,193026
OK,63,48,768,63,2014-08-02T08:50:00,0,20866944,193026
OK,51,60,768,51,2014-08-02T08:55:00,1,20867393,193026
OK,44,69,768,44,2014-08-02T09:00:00,1,20867842,193026
OK,85,36,768,85,2014-08-02T09:05:00,1,20868291,193026
OK,85,36,768,85,2014-08-02T09:10:00,0,20868740,193026
OK,85,36,768,85,2014-08-02T09:15:00,0,20869189,193026
OK,85,36,768,85,2014-08-02T09:20:00,0,20869638,193026
OK,95,32,768,95,2014-08-02T09:25:00,4,20870087,193026
OK,93,33,768,93,2014-08-02T09:30:00,4,20870536,193026
OK,70,43,768,70,2014-08-02T09:35:00,0,20870985,193026
OK,61,50,768,61,2014-08-02T09:40:00,1,20871434,193026
OK,61,50,768,61,2014-08-02T09:45:00,0,20871883,193026
OK,61,50,768,61,2014-08-02T09:50:00,0,20872332,193026
OK,61,50,768,61,2014-08-02T09:55:00,0,20872781,193026
OK,61,50,768,61,2014-08-02T10:00:00,0,20873230,193026
OK,61,50,768,61,2014-08-02T10:05:00,0,20873679,193026
OK,61,50,768,61,2014-08-02T10:10:00,0,20874128,193026
OK,61,50,768,61,2014-08-02T10:15:00,0,20874577,193026
OK,86,35,768,86,2014-08-02T10:20:00,1,20875026,193026
OK,86,35,768,86,2014-08-02T10:25:00,1,20875475,193026
OK,86,35,768,86,2014-08-02T10:30:00,0,20875924,193026
OK,86,35,768,86,2014-08-02T10:35:00,0,20876373,193026
OK,86,35,768,86,2014-08-02T10:40:00,0,20876822,193026
OK,86,35,768,86,2014-08-02T10:45:00,0,20877271,193026
OK,86,35,768,86,2014-08-02T10:50:00,0,20877720,193026
OK,66,46,768,66,2014-08-02T10:55:00,1,20878169,193026
OK,119,25,768,119,2014-08-02T11:00:00,1,20878618,193026
OK,119,25,768,119,2014-08-02T11:05:00,1,20879067,193026
OK,119,25,768,119,2014-08-02T11:10:00,0,20879516,193026
OK,119,25,768,119,2014-08-02T11:15:00,0,20879965,193026
OK,119,25,768,119,2014-08-02T11:20:00,0,20880414,193026
OK,119,25,768,119,2014-08-02T11:25:00,0,20880863,193026
OK,119,25,768,119,2014-08-02T11:30:00,2,20881312,193026
OK,119,25,768,119,2014-08-02T11:35:00,2,20881761,193026
OK,73,42,768,73,2014-08-02T11:40:00,0,20882210,193026
OK,73,42,768,73,2014-08-02T11:45:00,0,20882659,193026
OK,128,24,768,128,2014-08-02T11:50:00,2,20883108,193026
OK,147,20,768,147,2014-08-02T11:55:00,1,20883557,193026
OK,96,32,768,96,2014-08-02T12:00:00,2,20884006,193026
OK,78,39,768,78,2014-08-02T12:05:00,2,20884455,193026
OK,59,52,768,59,2014-08-02T12:10:00,0,20884904,193026
OK,59,52,768,59,2014-08-02T12:15:00,0,20885353,193026
OK,59,52,768,59,2014-08-02T12:20:00,0,20885802,193026
OK,59,52,768,59,2014-08-02T12:25:00,0,20886251,193026
OK,59,52,768,59,2014-08-02T12:30:00,0,20886700,193026
OK,59,52,768,59,2014-08-02T12:35:00,0,20887149,193026
OK,59,52,768,59,2014-08-02T12:40:00,0,20887598,193026
OK,71,43,768,71,2014-08-02T12:45:00,1,20888047,193026
OK,71,43,768,71,2014-08-02T12:50:00,1,20888496,193026
OK,76,40,768,76,2014-08-02T12:55:00,1,20888945,193026
OK,72,42,768,72,2014-08-02T13:00:00,2,20889394,193026
OK,69,44,768,69,2014-08-02T13:05:00,1,20889843,193026
OK,69,44,768,69,2014-08-02T13:10:00,0,20890292,193026
OK,69,44,768,69,2014-08-02T13:15:00,0,20890741,193026
OK,69,44,768,69,2014-08-02T13:20:00,0,20891190,193026
OK,69,44,768,69,2014-08-02T13:25:00,0,20891639,193026
OK,69,44,768,69,2014-08-02T13:30:00,0,20892088,193026
OK,69,44,768,69,2014-08-02T13:35:00,0,20892537,193026
OK,69,44,768,69,2014-08-02T13:40:00,0,20892986,193026
OK,69,44,768,69,2014-08-02T13:45:00,0,20893435,193026
OK,74,41,768,74,2014-08-02T13:50:00,2,20893884,193026
OK,65,47,768,65,2014-08-02T13:55:00,1,20894333,193026
OK,65,47,768,65,2014-08-02T14:00:00,0,20894782,193026
OK,65,47,768,65,2014-08-02T14:05:00,0,20895231,193026
OK,65,47,768,65,2014-08-02T14:10:00,0,20895680,193026
OK,65,47,768,65,2014-08-02T14:15:00,0,20896129,193026
OK,94,32,768,94,2014-08-02T14:20:00,2,20896578,193026
OK,97,31,768,97,2014-08-02T14:25:00,1,20897027,193026
OK,96,32,768,96,2014-08-02T14:30:00,1,20897476,193026
OK,96,32,768,96,2014-08-02T14:35:00,1,20897925,193026
OK,96,32,768,96,2014-08-02T14:40:00,0,20898374,193026
OK,170,18,768,170,2014-08-02T14:45:00,1,20898823,193026
OK,170,18,768,170,2014-08-02T14:50:00,1,20899272,193026
OK,72,42,768,72,2014-08-02T14:55:00,1,20899721,193026
OK,66,46,768,66,2014-08-02T15:00:00,2,20900170,193026
OK,60,51,768,60,2014-08-02T15:05:00,1,20900619,193026
OK,60,51,768,60,2014-08-02T15:10:00,0,20901068,193026
OK,60,51,768,60,2014-08-02T15:15:00,0,20901517,193026
OK,81,37,768,81,2014-08-02T15:20:00,1,20901966,193026
OK,81,37,768,81,2014-08-02T15:25:00,1,20902415,193026
OK,81,37,768,81,2014-08-02T15:30:00,0,20902864,193026
OK,81,37,768,81,2014-08-02T15:35:00,0,20903313,193026
OK,81,37,768,81,2014-08-02T15:40:00,0,20903762,193026
OK,75,40,768,75,2014-08-02T15:45:00,1,20904211,193026
OK,75,40,768,75,2014-08-02T15:50:00,1,20904660,193026
OK,67,45,768,67,2014-08-02T15:55:00,5,20905109,193026
OK,67,45,768,67,2014-08-02T16:00:00,5,20905558,193026
OK,48,64,768,48,2014-08-02T16:05:00,1,20906007,193026
OK,48,64,768,48,2014-08-02T16:10:00,0,20906456,193026
OK,48,64,768,48,2014-08-02T16:15:00,0,20906905,193026
OK,59,52,768,59,2014-08-02T16:20:00,2,20907354,193026
OK,59,52,768,59,2014-08-02T16:25:00,2,20907803,193026
OK,59,52,768,59,2014-08-02T16:30:00,0,20908252,193026
OK,59,52,768,59,2014-08-02T16:35:00,0,20908701,193026
OK,59,52,768,59,2014-08-02T16:40:00,0,20909150,193026
OK,48,64,768,48,2014-08-02T16:45:00,1,20909599,193026
OK,48,64,768,48,2014-08-02T16:50:00,1,20910048,193026
OK,48,64,768,48,2014-08-02T16:55:00,0,20910497,193026
OK,48,64,768,48,2014-08-02T17:00:00,0,20910946,193026
OK,48,64,768,48,2014-08-02T17:05:00,0,20911395,193026
OK,48,64,768,48,2014-08-02T17:10:00,0,20911844,193026
OK,48,64,768,48,2014-08-02T17:15:00,0,20912293,193026
OK,92,33,768,92,2014-08-02T17:20:00,1,20912742,193026
OK,92,33,768,92,2014-08-02T17:25:00,1,20913191,193026
OK,92,33,768,92,2014-08-02T17:30:00,0,20913640,193026
OK,92,33,768,92,2014-08-02T17:35:00,0,20914089,193026
OK,92,33,768,92,2014-08-02T17:40:00,0,20914538,193026
OK,92,33,768,92,2014-08-02T17:45:00,0,20914987,193026
OK,92,33,768,92,2014-08-02T17:50:00,0,20915436,193026
OK,92,33,768,92,2014-08-02T17:55:00,0,20915885,193026
OK,92,33,768,92,2014-08-02T18:00:00,0,20916334,193026
OK,92,33,768,92,2014-08-02T18:05:00,0,20916783,193026
OK,92,33,768,92,2014-08-02T18:10:00,0,20917232,193026
OK,92,33,768,92,2014-08-02T18:15:00,0,20917681,193026
OK,67,45,768,67,2014-08-02T18:20:00,1,20918130,193026
OK,67,45,768,67,2014-08-02T18:25:00,0,20918579,193026
OK,67,45,768,67,2014-08-02T18:30:00,0,20919028,193026
OK,67,45,768,67,2014-08-02T18:35:00,0,20919477,193026
OK,73,42,768,73,2014-08-02T18:40:00,1,20919926,193026
OK,73,42,768,73,2014-08-02T18:45:00,1,20920375,193026
OK,73,42,768,73,2014-08-02T18:50:00,0,20920824,193026
OK,73,42,768,73,2014-08-02T18:55:00,0,20921273,193026
OK,73,42,768,73,2014-08-02T19:00:00,0,20921722,193026
OK,140,21,768,140,2014-08-02T19:05:00,1,20922171,193026
OK,140,21,768,140,2014-08-02T19:10:00,1,20922620,193026
OK,140,21,768,140,2014-08-02T19:15:00,0,20923069,193026
OK,75,40,768,75,2014-08-02T19:20:00,1,20923518,193026
OK,92,33,768,92,2014-08-02T19:25:00,1,20923967,193026
OK,92,33,768,92,2014-08-02T19:30:00,0,20924416,193026
OK,92,33,768,92,2014-08-02T19:35:00,0,20924865,193026
OK,92,33,768,92,2014-08-02T19:40:00,0,20925314,193026
OK,92,33,768,92,2014-08-02T19:45:00,0,20925763,193026
OK,47,65,768,47,2014-08-02T19:50:00,1,20926212,193026
OK,47,65,768,47,2014-08-02T19:55:00,1,20926661,193026
OK,47,65,768,47,2014-08-02T20:00:00,0,20927110,193026
OK,47,65,768,47,2014-08-02T20:05:00,0,20927559,193026
OK,47,65,768,47,2014-08-02T20:10:00,0,20928008,193026
OK,47,65,768,47,2014-08-02T20:15:00,0,20928457,193026
OK,47,65,768,47,2014-08-02T20:20:00,0,20928906,193026
OK,64,48,768,64,2014-08-02T20:25:00,1,20929355,193026
OK,64,48,768,64,2014-08-02T20:30:00,0,20929804,193026
OK,64,48,768,64,2014-08-02T20:35:00,0,20930253,193026
OK,64,48,768,64,2014-08-02T20:40:00,0,20930702,193026
OK,64,48,768,64,2014-08-02T20:45:00,0,20931151,193026
OK,64,48,768,64,2014-08-02T20:50:00,0,20931600,193026
OK,64,48,768,64,2014-08-02T20:55:00,0,20932049,193026
OK,64,48,768,64,2014-08-02T21:00:00,0,20932498,193026
OK,64,48,768,64,2014-08-02T21:05:00,0,20932947,193026
OK,64,48,768,64,2014-08-02T21:10:00,0,20933396,193026
OK,64,48,768,64,2014-08-02T21:15:00,0,20933845,193026
OK,64,48,768,64,2014-08-02T21:20:00,0,20934294,193026
OK,64,48,768,64,2014-08-02T21:25:00,0,20934743,193026
OK,64,48,768,64,2014-08-02T21:30:00,0,20935192,193026
OK,64,48,768,64,2014-08-02T21:35:00,0,20935641,193026
OK,76,40,768,76,2014-08-02T21:40:00,1,20936090,193026
OK,76,40,768,76,2014-08-02T21:45:00,1,20936539,193026
OK,76,40,768,76,2014-08-02T21:50:00,0,20936988,193026
OK,76,40,768,76,2014-08-02T21:55:00,0,20937437,193026
OK,76,40,768,76,2014-08-02T22:00:00,0,20937886,193026
OK,76,40,768,76,2014-08-02T22:05:00,0,20938335,193026
OK,76,40,768,76,2014-08-02T22:10:00,0,20938784,193026
OK,76,40,768,76,2014-08-02T22:15:00,0,20939233,193026
OK,76,40,768,76,2014-08-02T22:20:00,0,20939682,193026
OK,76,40,768,76,2014-08-02T22:25:00,0,20940131,193026
OK,76,40,768,76,2014-08-02T22:30:00,0,20940580,193026
OK,76,40,768,76,2014-08-02T22:35:00,0,20941029,193026
OK,76,40,768,76,2014-08-02T22:40:00,0,20941478,193026
OK,76,40,768,76,2014-08-02T22:45:00,0,20941927,193026
OK,76,40,768,76,2014-08-02T22:50:00,0,20942376,193026
OK,76,40,768,76,2014-08-02T22:55:00,0,20942825,193026
OK,76,40,768,76,2014-08-02T23:00:00,0,20943274,193026
OK,76,40,768,76,2014-08-02T23:10:00,0,20943723,193026
OK,76,40,768,76,2014-08-02T23:15:00,0,20944172,193026
OK,76,40,768,76,2014-08-02T23:20:00,0,20944621,193026
OK,76,40,768,76,2014-08-02T23:25:00,0,20945070,193026
OK,76,40,768,76,2014-08-02T23:30:00,0,20945519,193026
OK,76,40,768,76,2014-08-02T23:35:00,0,20945968,193026
OK,76,40,768,76,2014-08-02T23:40:00,0,20946417,193026
OK,76,40,768,76,2014-08-02T23:45:00,0,20946866,193026
OK,76,40,768,76,2014-08-02T23:50:00,0,20947315,193026
OK,76,40,768,76,2014-08-02T23:55:00,0,20947764,193026
OK,76,40,768,76,2014-08-03T00:00:00,0,20948213,193026
OK,76,40,768,76,2014-08-03T00:05:00,0,20948662,193026
OK,76,40,768,76,2014-08-03T00:10:00,0,20949111,193026
OK,76,40,768,76,2014-08-03T00:15:00,0,20949559,193026